Regional Weather Roundup
Issued by NWS

Home | Current Version | Previous Version | Graphics & Text | Print | Product List | Glossary On
Versions: 1 2 3 4 5 6 7 8 9 10 11 12 13 14 15 16 17 18 19 20 21 22 23 24 25 26 27 28 29 30 31 32 33 34 35 36 37 38 39 40 41 42 43 44 45 46 47 48 49 50
000
ASUS43 KLOT 302110
RWRIL

ILLINOIS REGIONAL WEATHER ROUNDUP
NATIONAL WEATHER SERVICE CHICAGO/ROMEOVILLE IL
400 PM CDT THU OCT 30 2014

NOTE: "FAIR" INDICATES FEW OR NO CLOUDS BELOW 12,000 FEET WITH NO
SIGNIFICANT WEATHER AND/OR OBSTRUCTIONS TO VISIBILITY.

* THESE STATIONS ARE NOT UNDER NWS QUALITY CONTROL. THEY ALSO MAY NOT
  REPORT WEATHER SUCH AS PRECIPITATION OR FOG.

ILZ001-002-007-009-015-016-024-302200-
NORTHWEST ILLINOIS

CITY           SKY/WX    TMP DP  RH WIND       PRES   REMARKS
MOLINE         CLOUDY    52  38  58 SE5       30.04S
STERLING*      CLOUDY    52  36  54 CALM      30.06S
SAVANNA*       CLOUDY    51  35  53 CALM      30.06R
$$

ILZ003-004-008-010-011-017-018-302200-
NORTH CENTRAL ILLINOIS

CITY           SKY/WX    TMP DP  RH WIND       PRES   REMARKS
ROCKFORD       CLOUDY    51  35  54 W5        30.08R
FREEPORT*      CLOUDY    49  35  58 CALM      30.07S
ROCHELLE*      CLOUDY    50  35  55 W6        30.06S
DE KALB*       CLOUDY    48  35  60 W6        30.06S
PERU*          CLOUDY    49  37  63 S3        30.06F
$$

ILZ005-006-012>014-019>023-302200-
NORTHEAST ILLINOIS

CITY           SKY/WX    TMP DP  RH WIND       PRES   REMARKS
CHICAGO-OHARE  CLOUDY    50  35  56 W7        30.05S
CHICAGO-MIDWAY CLOUDY    52  36  54 SW10      30.06S
AURORA         CLOUDY    50  35  56 SW6       30.06F
LANSING*       CLOUDY    49  35  58 W8        30.07S
JOLIET*        CLOUDY    49  35  59 SW5       30.07S
WAUKEGAN       CLOUDY    51  34  52 SW5       30.04S
DUPAGE AIRPORT CLOUDY    51  35  54 W7        30.05S
WHEELING       CLOUDY    52  34  50 W8        30.07F
MORRIS*        CLOUDY    50  38  64 S3        30.06S
ROMEOVILLE*    CLOUDY    50  35  55 SW6       30.06F
NORTHERLY ISL    N/A     51  34  52 SW3         N/A
$$

LMZ740>746-302200-
SOUTHERN LAKE MICHIGAN

STATION/POSITION SKY/WX   TEMP    WIND        PRES    VSBY  WAVE
                          AIR SEA DIR/SP/G                  HT/PER
                          (F)     (DEG/KT/KT) (MB)    (MI)  (FT/S)
SOUTHERN BUOY              48 53  230/ 10/ 12 1017.9F         2/ 4
WAUKEGAN HARBOR            51     210/  7/ 10   N/A
HARRISON CRIB              50     230/  6/  9   N/A
BURNHAM HARBOR             51     250/  5/ 11   N/A
CALUMET HARBOR             50     220/  6/ 12 1016.9R
MICHIGAN CITY              49     210/  4/  6   N/A
$$

ILZ025>027-034>036-040-047-049-050-058-095>099-302200-
WEST-CENTRAL ILLINOIS

CITY           SKY/WX    TMP DP  RH WIND       PRES   REMARKS
QUINCY         MOSUNNY   57  42  57 VRB5      29.99S
GALESBURG*     CLOUDY    46  40  78 E7        30.03S
MACOMB*        SUNNY     54  41  61 E12       30.03S
JACKSONVILLE*  CLOUDY    54  43  67 SE6       30.02F
PITTSFIELD*    CLOUDY    55  43  66 S3        30.02R
$$

ILZ028>032-037-038-041>044-048-051>054-059>061-302200-
CENTRAL ILLINOIS

CITY           SKY/WX    TMP DP  RH WIND       PRES   REMARKS
PONTIAC        DRIZZLE   50  40  68 CALM      30.08S
BLOOMINGTON    CLOUDY    50  41  71 CALM      30.07S
DECATUR        LGT RAIN  51  43  74 SE5       30.06S
PEORIA         CLOUDY    49  42  77 E5        30.05F
LACON*         RAIN      47  39  72 CALM      30.06R
LINCOLN*       LGT RAIN  50  43  78 E3        30.04S
SPRINGFIELD    LGT RAIN  52  43  71 E8        30.04F
TAYLORVILLE    CLOUDY    50  43  76 NE6       30.04R
$$

ILZ033-039-045-046-055>057-062-063-302200-
EAST-CENTRAL ILLINOIS

CITY           SKY/WX    TMP DP  RH WIND       PRES   REMARKS
CHAMPAIGN      CLOUDY    53  37  54 SW6       30.06F
DANVILLE*      CLOUDY    51  35  54 W6        30.05R
RANTOUL*       CLOUDY    53  38  55 SW6       30.06F
MATTOON        CLOUDY    52  37  56 SE3       30.05F
PARIS*         CLOUDY    53  37  54 CALM      30.07F
$$

ILZ079-100>102-302200-
SOUTHWEST ILLINOIS

CITY           SKY/WX    TMP DP  RH WIND       PRES   REMARKS
BELLEVILLE     CLOUDY    59  43  55 E3        30.02F
CAHOKIA*       CLOUDY    59  42  53 SE3       30.02F
SPARTA*        CLOUDY    59  40  48 S5        30.04S
$$

ILZ064>066-069>071-074>076-080>082-084>086-088>090-092>094-302200-
SOUTH-CENTRAL ILLINOIS

CITY           SKY/WX    TMP DP  RH WIND       PRES   REMARKS
CARBONDALE     PTSUNNY   62  37  39 S9        30.04F
CAIRO*         MOSUNNY   64  39  40 SW6       30.05S
EFFINGHAM*     RAIN      55  35  45 SW3       30.06S
MARION         PTSUNNY   63  41  45 S6        30.05F
MT. VERNON     PTSUNNY   61  39  44 S5        30.06R
CENTRALIA*     PTSUNNY   57  38  48 SE5       30.05S
SALEM*         PTSUNNY   59  40  48 CALM      30.05F
METROPOLIS*    SUNNY     63  40  43 CALM      30.04F
$$

ILZ067-068-072-073-078-083-087-091-302200-
SOUTHEAST ILLINOIS

CITY           SKY/WX    TMP DP  RH WIND       PRES   REMARKS
LAWRENCEVILLE  PTSUNNY   56  31  38 CALM      30.06F
FLORA*         MOSUNNY   56  38  49 S5        30.05F
FAIRFIELD*     CLOUDY    58  38  47 S6        30.04F
HARRISBURG*    MOSUNNY   61  37  40 CALM      30.05F
ROBINSON*      PTSUNNY   58  37  46 CALM      30.07F
CARMI*         MOSUNNY   61  39  44 CALM      30.05F
$$

ABBREVIATIONS USED IN REMARKS
   TC - TEMPERATURE IN CELSIUS
  WCI - WIND CHILL INDEX
   HX - HEAT INDEX
  VSB - VISIBILITY
$$




USA.gov is the U.S. government's official web portal to all federal, state and local government web resources and services.